When you browse on this site, cookies collect data to enhance your experience and personalize the content and advertising you see.
Visit our Privacy Policy to learn more. By continuing to use the site, you agree to this use of cookies and data.
  • In Deutschland
  • Länderverzeichnis
  • Für 7 Tage
  • Wassertemperatur
  • Wetterkarte
  • Widgets
  • user-avatar
    Anmelden

    Stündliche Wetter Rothenburg ob der Tauber

    Heute, 19 August, Montag

    Zeit Temperatur Niederschläge Wind Luftdruck Luftfeuchtigkeit
    00:00 +18°C° 0.5 mm 3 m/S 722 mmHg 93%
    01:00 +18°C° 0 mm 3 m/S 723 mmHg 92%
    02:00 +18°C° 1 mm 3 m/S 723 mmHg 93%
    03:00 +18°C° 1 mm 3 m/S 723 mmHg 95%
    04:00 +17°C° 1 mm 2 m/S 723 mmHg 97%
    05:00 +17°C° 1.3 mm 3 m/S 724 mmHg 96%
    06:00 +17°C° 1.3 mm 3 m/S 724 mmHg 95%
    07:00 +17°C° 1.3 mm 4 m/S 725 mmHg 94%
    08:00 +18°C° 0.1 mm 4 m/S 725 mmHg 88%
    09:00 +19°C° 0.1 mm 4 m/S 725 mmHg 82%
    10:00 +20°C° 0.1 mm 4 m/S 726 mmHg 75%
    11:00 +21°C° 0.1 mm 4 m/S 726 mmHg 71%
    12:00 +21°C° 0.1 mm 3 m/S 726 mmHg 66%
    13:00 +22°C° 0.1 mm 3 m/S 726 mmHg 61%
    14:00 +22°C° 0 mm 3 m/S 726 mmHg 60%
    15:00 +22°C° 0 mm 3 m/S 726 mmHg 60%
    16:00 +23°C° 0 mm 2 m/S 726 mmHg 59%
    17:00 +21°C° 0 mm 2 m/S 726 mmHg 63%
    18:00 +21°C° 0 mm 1 m/S 726 mmHg 67%
    19:00 +20°C° 0 mm 1 m/S 726 mmHg 71%
    20:00 +17°C° 0 mm 0 m/S 726 mmHg 71%
    21:00 +16°C° 0 mm 0 m/S 727 mmHg 72%
    22:00 +15°C° 0 mm 0 m/S 727 mmHg 72%
    23:00 +16°C° 0 mm 0 m/S 727 mmHg 70%

    Morgen, 20 August, Dienstag

    Zeit Temperatur Niederschläge Wind Luftdruck Luftfeuchtigkeit
    00:00 +16°C° 0 mm 0 m/S 727 mmHg 69%
    01:00 +16°C° 0 mm 0 m/S 727 mmHg 67%
    02:00 +16°C° 0 mm 0 m/S 727 mmHg 69%
    03:00 +16°C° 0 mm 0 m/S 727 mmHg 71%
    04:00 +16°C° 0 mm 0 m/S 727 mmHg 73%
    05:00 +16°C° 0 mm 0 m/S 727 mmHg 75%
    06:00 +16°C° 0 mm 0 m/S 727 mmHg 77%
    07:00 +16°C° 0 mm 0 m/S 727 mmHg 79%
    08:00 +19°C° 0.1 mm 1 m/S 728 mmHg 76%
    09:00 +19°C° 0.1 mm 1 m/S 728 mmHg 74%
    10:00 +19°C° 0.1 mm 2 m/S 728 mmHg 72%
    11:00 +18°C° 0.4 mm 2 m/S 728 mmHg 77%
    12:00 +19°C° 0.4 mm 1 m/S 728 mmHg 81%
    13:00 +18°C° 0.4 mm 1 m/S 728 mmHg 86%
    14:00 +16°C° 1.2 mm 2 m/S 729 mmHg 88%
    15:00 +16°C° 1.2 mm 3 m/S 729 mmHg 90%
    16:00 +14°C° 1.2 mm 3 m/S 729 mmHg 92%
    17:00 +14°C° 0.4 mm 3 m/S 730 mmHg 92%
    18:00 +14°C° 0.4 mm 2 m/S 730 mmHg 92%
    19:00 +14°C° 0.4 mm 2 m/S 731 mmHg 92%
    20:00 +14°C° 0 mm 2 m/S 731 mmHg 92%
    21:00 +13°C° 0 mm 2 m/S 731 mmHg 92%
    22:00 +13°C° 0 mm 2 m/S 731 mmHg 93%
    23:00 +13°C° 0 mm 2 m/S 731 mmHg 93%

    übermorgen, 21 August, Mittwoch

    Zeit Temperatur Niederschläge Wind Luftdruck Luftfeuchtigkeit
    00:00 +13°C° 0 mm 2 m/S 731 mmHg 93%
    01:00 +13°C° 0 mm 2 m/S 731 mmHg 93%
    02:00 +13°C° 0 mm 2 m/S 731 mmHg 94%
    03:00 +12°C° 0 mm 1 m/S 732 mmHg 94%
    04:00 +12°C° 0 mm 1 m/S 732 mmHg 94%
    05:00 +13°C° 0 mm 1 m/S 732 mmHg 93%
    06:00 +13°C° 0 mm 1 m/S 732 mmHg 92%
    07:00 +12°C° 0 mm 0 m/S 732 mmHg 91%
    08:00 +15°C° 0 mm 1 m/S 732 mmHg 85%
    09:00 +16°C° 0 mm 1 m/S 732 mmHg 79%
    10:00 +19°C° 0 mm 1 m/S 732 mmHg 72%
    11:00 +19°C° 0.1 mm 2 m/S 732 mmHg 68%
    12:00 +20°C° 0.1 mm 2 m/S 732 mmHg 63%
    13:00 +20°C° 0.1 mm 2 m/S 732 mmHg 59%
    14:00 +20°C° 0 mm 2 m/S 731 mmHg 60%
    15:00 +20°C° 0 mm 2 m/S 731 mmHg 60%
    16:00 +20°C° 0 mm 2 m/S 731 mmHg 61%
    17:00 +19°C° 0 mm 2 m/S 730 mmHg 66%
    18:00 +18°C° 0 mm 2 m/S 730 mmHg 72%
    19:00 +18°C° 0 mm 1 m/S 730 mmHg 77%
    20:00 +16°C° 0 mm 1 m/S 730 mmHg 78%
    21:00 +15°C° 0 mm 2 m/S 730 mmHg 80%
    22:00 +14°C° 0 mm 2 m/S 730 mmHg 81%
    23:00 +14°C° 0 mm 2 m/S 730 mmHg 83%

    22 August, Donnerstag

    Zeit Temperatur Niederschläge Wind Luftdruck Luftfeuchtigkeit
    00:00 +14°C° 0 mm 2 m/S 730 mmHg 84%
    01:00 +13°C° 0 mm 2 m/S 730 mmHg 86%
    02:00 +13°C° 0 mm 2 m/S 730 mmHg 88%
    03:00 +12°C° 0 mm 2 m/S 730 mmHg 90%
    04:00 +12°C° 0 mm 2 m/S 729 mmHg 91%
    05:00 +13°C° 0 mm 2 m/S 730 mmHg 91%
    06:00 +13°C° 0 mm 2 m/S 730 mmHg 90%
    07:00 +14°C° 0 mm 2 m/S 730 mmHg 89%
    08:00 +16°C° 0 mm 2 m/S 730 mmHg 83%
    09:00 +17°C° 0 mm 2 m/S 730 mmHg 77%
    10:00 +19°C° 0 mm 2 m/S 731 mmHg 71%
    11:00 +20°C° 0 mm 2 m/S 730 mmHg 68%
    12:00 +22°C° 0 mm 1 m/S 730 mmHg 65%
    13:00 +23°C° 0 mm 1 m/S 730 mmHg 62%
    14:00 +23°C° 0 mm 1 m/S 730 mmHg 63%
    15:00 +23°C° 0 mm 1 m/S 730 mmHg 64%
    16:00 +23°C° 0 mm 2 m/S 730 mmHg 65%
    17:00 +22°C° 0 mm 1 m/S 730 mmHg 68%
    18:00 +21°C° 0 mm 1 m/S 730 mmHg 72%
    19:00 +20°C° 0 mm 1 m/S 730 mmHg 75%
    20:00 +19°C° 0 mm 1 m/S 730 mmHg 75%
    21:00 +19°C° 0 mm 1 m/S 730 mmHg 74%
    22:00 +18°C° 0 mm 1 m/S 730 mmHg 74%
    23:00 +18°C° 0 mm 1 m/S 730 mmHg 76%

    23 August, Freitag

    Zeit Temperatur Niederschläge Wind Luftdruck Luftfeuchtigkeit
    00:00 +18°C° 0 mm 1 m/S 730 mmHg 78%
    01:00 +16°C° 0 mm 1 m/S 730 mmHg 79%
    02:00 +15°C° 0 mm 1 m/S 730 mmHg 82%
    03:00 +15°C° 0 mm 1 m/S 730 mmHg 86%
    04:00 +14°C° 0 mm 1 m/S 729 mmHg 89%
    05:00 +14°C° 0 mm 1 m/S 730 mmHg 88%
    06:00 +15°C° 0 mm 2 m/S 730 mmHg 86%
    07:00 +15°C° 0 mm 2 m/S 730 mmHg 85%
    08:00 +17°C° 0 mm 2 m/S 730 mmHg 79%
    09:00 +19°C° 0 mm 3 m/S 730 mmHg 73%
    10:00 +21°C° 0 mm 3 m/S 730 mmHg 68%
    11:00 +22°C° 0 mm 3 m/S 730 mmHg 64%
    12:00 +24°C° 0 mm 3 m/S 730 mmHg 61%
    13:00 +25°C° 0 mm 3 m/S 730 mmHg 57%
    14:00 +25°C° 0 mm 3 m/S 729 mmHg 57%
    15:00 +25°C° 0 mm 3 m/S 729 mmHg 58%
    16:00 +25°C° 0 mm 3 m/S 728 mmHg 58%
    17:00 +24°C° 0 mm 3 m/S 728 mmHg 63%
    18:00 +21°C° 0 mm 3 m/S 728 mmHg 69%
    19:00 +20°C° 0 mm 2 m/S 728 mmHg 75%
    20:00 +19°C° 0 mm 2 m/S 728 mmHg 77%
    21:00 +18°C° 0 mm 2 m/S 728 mmHg 79%
    22:00 +17°C° 0 mm 2 m/S 728 mmHg 81%
    23:00 +16°C° 0 mm 2 m/S 728 mmHg 84%

    24 August, Samstag

    Zeit Temperatur Niederschläge Wind Luftdruck Luftfeuchtigkeit
    00:00 +16°C° 0 mm 2 m/S 727 mmHg 86%
    01:00 +15°C° 0 mm 2 m/S 727 mmHg 89%
    02:00 +15°C° 0 mm 2 m/S 727 mmHg 90%
    03:00 +15°C° 0 mm 2 m/S 726 mmHg 92%
    04:00 +14°C° 0 mm 2 m/S 726 mmHg 93%
    05:00 +15°C° 0 mm 2 m/S 726 mmHg 92%
    06:00 +16°C° 0 mm 1 m/S 726 mmHg 90%
    07:00 +18°C° 0 mm 1 m/S 726 mmHg 89%
    08:00 +19°C° 0 mm 1 m/S 726 mmHg 83%
    09:00 +21°C° 0 mm 1 m/S 726 mmHg 78%
    10:00 +23°C° 0 mm 1 m/S 726 mmHg 72%
    11:00 +24°C° 0 mm 1 m/S 726 mmHg 70%
    12:00 +25°C° 0 mm 1 m/S 726 mmHg 68%
    13:00 +26°C° 0 mm 1 m/S 725 mmHg 65%
    14:00 +26°C° 0 mm 1 m/S 725 mmHg 65%
    15:00 +26°C° 0 mm 1 m/S 725 mmHg 64%
    16:00 +26°C° 0 mm 1 m/S 724 mmHg 64%
    17:00 +25°C° 0 mm 1 m/S 724 mmHg 71%
    18:00 +23°C° 0 mm 1 m/S 724 mmHg 77%
    19:00 +22°C° 0 mm 1 m/S 724 mmHg 84%
    20:00 +21°C° 0 mm 1 m/S 724 mmHg 86%
    21:00 +20°C° 0 mm 1 m/S 724 mmHg 87%
    22:00 +19°C° 0 mm 1 m/S 724 mmHg 89%
    23:00 +19°C° 0 mm 1 m/S 724 mmHg 89%
    Mehr zeigen